Home   Weather   Charlottesville   Past weeks

Flag for USA Past Weather in Charlottesville, Virginia, USA — Yesterday and Last 2 Weeks

Now
41 °F

Clear.


Feels Like: 38 °F
Forecast: 26 / 41 °F
Wind: 5 mph from North

Location: Charlottesville-Albemarle Airport

Current Time: Dec 8, 2016 at 7:15:19 pm

Latest Report: Dec 8, 2016 at 5:53 pm


Visibility: 10 mi

Pressure: 30.11 "Hg

Humidity: 32%

Dew Point: 13 °F

Location of CharlottesvilleLocation

Past Weather in Charlottesville — Graph

°F

Charlottesville Temperature Yesterday

Maximum temperature yesterday: 55 °F (at 3:53 pm)
Minimum temperature yesterday: 37 °F (at 4:53 am)
Average temperature yesterday: 44 °F

High & Low Weather Summary for the Past Weeks

 TemperatureHumidityPressure
High69 °F (Nov 24, 2:53 pm)97% (Nov 30, 4:53 am)30.30 "Hg (Nov 30, 4:53 am)
Low31 °F (Dec 4, 5:53 am)28% (Dec 8, 3:53 pm)29.56 "Hg (Nov 30, 10:53 pm)
Average47 °F66%30.06 "Hg
* Reported Nov 23 5:53 pm — Dec 8 5:53 pm, Charlottesville, Weather by CustomWeather, © 2016

Note: Actual official high and low records may vary slightly from our data, if they occured in-between our weather recording intervals... More about our weather records

Advertising

Charlottesville Weather History for the Previous 24 Hours

Scroll right to see more
 ConditionsComfort  
Time TempWeatherWind HumidityBarometerVisibility
5:53 pm
Thu, Dec 8
41 °FClear.5 mph32%30.11 "Hg10 mi
4:53 pm44 °FClear.5 mph29%30.09 "Hg10 mi
3:53 pm47 °FSunny.8 mph28%30.06 "Hg10 mi
2:53 pm47 °FPassing clouds.7 mph36%30.03 "Hg10 mi
1:53 pm46 °FSunny.No wind37%30.02 "Hg10 mi
12:53 pm46 °FSunny.No wind37%30.02 "Hg10 mi
11:53 am46 °FSunny.No wind42%30.04 "Hg10 mi
10:53 am44 °FSunny.No wind60%30.07 "Hg10 mi
9:53 am41 °FPassing clouds.5 mph80%30.07 "Hg10 mi
8:53 am40 °FOvercast.No wind83%30.06 "Hg10 mi
7:53 am37 °FBroken clouds.6 mph89%30.05 "Hg10 mi
6:53 am37 °FPassing clouds.No wind89%30.03 "Hg10 mi
5:53 am38 °FOvercast.No wind86%30.02 "Hg10 mi
4:53 am36 °FOvercast.No wind89%30.01 "Hg10 mi
3:53 am36 °FOvercast.No wind85%30.01 "Hg10 mi
2:53 am36 °FPassing clouds.No wind89%30.03 "Hg10 mi
1:53 am36 °FClear.No wind85%30.03 "Hg10 mi
12:53 am37 °FClear.3 mph82%30.03 "Hg10 mi
11:53 pm
Wed, Dec 7
37 °FClear.No wind86%30.05 "Hg10 mi
10:53 pm37 °FClear.5 mph82%30.08 "Hg10 mi
9:53 pm39 °FClear.No wind76%30.06 "Hg10 mi
8:53 pm40 °FClear.5 mph77%30.07 "Hg10 mi
7:53 pm45 °FClear.No wind65%30.06 "Hg10 mi
Weather by CustomWeather, © 2016

See weather overviewHow to use our weather pages